User: anonymous   Login
Location: Unspecified
(0.0000°N, 0.0000°E)
Time: 15:53:11
(UTC+00:00)
Language:

Ajisai (EGP) Rocket - Orbit

View from above orbital plane
View from above orbital plane
View from above satellite
View from above satellite

Ground track
Ground track

The orbit data is extracted from the following two-line orbital elements,

1 16910U 86061C   19015.95550975 -.00000089 +00000-0 +40497-4 0  9995
2 16910 050.0048 284.4955 0072344 005.2324 080.2251 12.32581033460319
Epoch (UTC): 15 January 2019 22:55:56
Eccentricity: 0.0072344
inclination: 50.0048°
perigee height: 1481 km
apogee height: 1595 km
right ascension of ascending node: 284.4955°
argument of perigee: 5.2324°
revolutions per day: 12.32581033
mean anomaly at epoch: 80.2251°
orbit number at epoch: 46031

The dashed part of the orbit path shows where the satellite is in the earth's shadow,  

DLR